Location: *
(46.4000°N, 12.6667°E)
Time: 09:00:14
(UTC+00:00)

STARLINK-1227 - Pass Details

Date: 09 April 2020
Orbit: 375 x 384 km, 53.0° (Epoch: 25 May)

Event Time Altitude Azimuth Distance (km) Brightness Sun altitude
Rises 19:47:34 0° 296° (WNW) 2,270 8.3 -19.3°
Reaches altitude 10° 19:49:42 10° 289° (WNW) 1,413 6.8 -19.6°
Enters shadow 19:52:30 38° 228° (SW) 608 3.9 -20.0°
